Weather in Zeltweg

Austria     47°11′22″N   14°45′10″E
temp.,
°C
wind,
m/s
gust,
m/s
humid.,
%
clouds,
%
prec.,
mm/h
press.,
hPa
HPBL,
m
8 may, sat
sat823:00−2nw239521 0.0 102254
02:00−2nw22955 0.0 102429
05:00−3nw21945 0.0 102421
08:00+3sw01683 0.0 1024343
11:00+9sse233349 0.0 10201568
14:00+12s342821 0.0 10182067
17:00+13sse233485 0.0 10171627
20:00+6s117177 0.0 101911
9 may, sun
sun923:00+2wsw2281100 0.0 102320
02:00+3w2281100 0.0 102242
05:00+3w228570 0.0 102227
08:00+8sw12645 0.0 1020230
11:00+15s23425 0.0 1017931
14:00+18sse34365 0.0 10151471
17:00+17s24445 0.0 10141524
20:00+11ssw21785 0.0 101413
10 may, mon
mon1023:00+6wsw22935 0.0 101623
02:00+5wsw23976 0.0 101653
05:00+4wsw349814 0.0 101580
08:00+9wsw348347 0.0 1013274
11:00+16sw35540 0.0 1011867
14:00+20sw354583 0.0 10101268
17:00+21sw35426 0.0 10101433
20:00+13sw227750 0.0 101230
11 may, tue
tue1123:00+10wsw2386100 0.0 101359
02:00+7wsw2295100 0.0 101343
05:00+7wsw2394100 0.0 101362
08:00+12wsw247430 0.0 1012260
11:00+18ssw3747100 0.0 10101429
14:00+19ssw384213 0.0 10081918
17:00+19s410390 0.0 10061922
20:00+12sw227644 0.0 100629
12 may, wed
wed1223:00+9wsw2384100 0.0 100864
02:00+8wnw1185100 0.0 100718
05:00+8nne1297100 1.0 100676
08:00+9n1296100 2.6 1005147
11:00+6n2395100 9.3 1009352
14:00+7nnw1291100 11.6 1009543
17:00+6nw2595100 3.8 1009619
20:00+4nw2598100 4.0 1009432